When you browse on this site, cookies collect data to enhance your experience and personalize the content and advertising you see.
Visit our Privacy Policy to learn more. By continuing to use the site, you agree to this use of cookies and data.
  • In Hungary
  • List of Countries
  • For 7 days
  • Water Temperature
  • Satellite Maps
  • Weather Map
  • News
  • Weather Widgets
  • user-avatar
    Login

    Hourly Weather Góra

    Today, 18 January, Friday

    Time Temperature Precipitation Wind Pressure Humidity
    00:00 +5°C° 0.1 mm 4 mps 750 mmHg 77%
    01:00 +5°C° 0 mm 3 mps 750 mmHg 78%
    02:00 +4°C° 0.4 mm 3 mps 750 mmHg 80%
    03:00 +4°C° 0.4 mm 3 mps 750 mmHg 81%
    04:00 +4°C° 0.4 mm 3 mps 750 mmHg 83%
    05:00 +5°C° 1.2 mm 2 mps 750 mmHg 86%
    06:00 +4°C° 1.2 mm 2 mps 750 mmHg 89%
    07:00 +4°C° 0 mm 2 mps 750 mmHg 90%
    08:00 +3°C° 0.4 mm 3 mps 750 mmHg 87%
    09:00 +4°C° 0.4 mm 4 mps 751 mmHg 84%
    10:00 +4°C° 0.4 mm 4 mps 751 mmHg 80%
    11:00 +3°C° 0.3 mm 5 mps 752 mmHg 77%
    12:00 +3°C° 0.3 mm 5 mps 752 mmHg 74%
    13:00 +3°C° 0.3 mm 6 mps 752 mmHg 72%
    14:00 +3°C° 0.1 mm 5 mps 753 mmHg 71%
    15:00 +3°C° 0.1 mm 5 mps 754 mmHg 70%
    16:00 +2°C° 0.1 mm 5 mps 754 mmHg 69%
    17:00 +3°C° 0 mm 4 mps 755 mmHg 70%
    18:00 +2°C° 0 mm 3 mps 755 mmHg 72%
    19:00 +3°C° 0 mm 2 mps 756 mmHg 73%
    20:00 +2°C° 0 mm 2 mps 756 mmHg 74%
    21:00 +2°C° 0 mm 2 mps 757 mmHg 75%
    22:00 +2°C° 0 mm 2 mps 757 mmHg 76%
    23:00 +1°C° 0 mm 2 mps 757 mmHg 76%

    Tomorrow, 19 January, Saturday

    Time Temperature Precipitation Wind Pressure Humidity
    00:00 +1°C° 0 mm 2 mps 757 mmHg 76%
    01:00 -1°C° 0 mm 2 mps 757 mmHg 76%
    02:00 -1°C° 0 mm 2 mps 757 mmHg 76%
    03:00 -2°C° 0 mm 2 mps 757 mmHg 75%
    04:00 -2°C° 0 mm 2 mps 757 mmHg 75%
    05:00 -2°C° 0 mm 2 mps 757 mmHg 76%
    06:00 -2°C° 0 mm 2 mps 757 mmHg 76%
    07:00 -2°C° 0 mm 2 mps 757 mmHg 77%
    08:00 -1°C° 0 mm 2 mps 757 mmHg 73%
    09:00 +1°C° 0 mm 2 mps 757 mmHg 70%
    10:00 +1°C° 0 mm 3 mps 758 mmHg 66%
    11:00 +1°C° 0 mm 3 mps 757 mmHg 63%
    12:00 +2°C° 0 mm 3 mps 757 mmHg 60%
    13:00 +3°C° 0 mm 3 mps 756 mmHg 57%
    14:00 +3°C° 0 mm 3 mps 756 mmHg 59%
    15:00 +2°C° 0 mm 3 mps 756 mmHg 61%
    16:00 +2°C° 0 mm 3 mps 755 mmHg 63%
    17:00 +1°C° 0 mm 3 mps 755 mmHg 66%
    18:00 +1°C° 0 mm 3 mps 755 mmHg 68%
    19:00 +1°C° 0 mm 3 mps 755 mmHg 70%
    20:00 0°C° 0.3 mm 3 mps 755 mmHg 74%
    21:00 -1°C° 0.3 mm 4 mps 754 mmHg 79%
    22:00 -1°C° 0.3 mm 4 mps 754 mmHg 83%
    23:00 0°C° 0.2 mm 3 mps 754 mmHg 86%

    Day after tomorrow, 20 January, Sunday

    Time Temperature Precipitation Wind Pressure Humidity
    00:00 0°C° 0.2 mm 3 mps 754 mmHg 88%
    01:00 0°C° 0.2 mm 3 mps 753 mmHg 90%
    02:00 0°C° 0.4 mm 3 mps 753 mmHg 91%
    03:00 +1°C° 0.4 mm 2 mps 753 mmHg 92%
    04:00 +1°C° 0.4 mm 2 mps 752 mmHg 93%
    05:00 +1°C° 0.5 mm 2 mps 752 mmHg 94%
    06:00 +2°C° 0.5 mm 1 mps 753 mmHg 95%
    07:00 +2°C° 0.5 mm 1 mps 753 mmHg 96%
    08:00 +2°C° 0 mm 1 mps 753 mmHg 96%
    09:00 +1°C° 0 mm 2 mps 753 mmHg 95%
    10:00 +1°C° 0 mm 2 mps 753 mmHg 95%
    11:00 +2°C° 0 mm 2 mps 753 mmHg 92%
    12:00 +2°C° 0 mm 2 mps 753 mmHg 89%
    13:00 +2°C° 0 mm 3 mps 753 mmHg 87%
    14:00 +1°C° 0 mm 3 mps 753 mmHg 86%
    15:00 +2°C° 0 mm 2 mps 753 mmHg 86%
    16:00 +2°C° 0 mm 2 mps 753 mmHg 86%
    17:00 +2°C° 0 mm 2 mps 754 mmHg 86%
    18:00 +1°C° 0 mm 2 mps 754 mmHg 86%
    19:00 +2°C° 0 mm 1 mps 754 mmHg 87%
    20:00 +2°C° 0 mm 1 mps 755 mmHg 87%
    21:00 +2°C° 0 mm 1 mps 755 mmHg 86%
    22:00 +1°C° 0 mm 2 mps 755 mmHg 86%
    23:00 -1°C° 0 mm 2 mps 756 mmHg 87%

    21 January, Monday

    Time Temperature Precipitation Wind Pressure Humidity
    00:00 -1°C° 0 mm 2 mps 756 mmHg 87%
    01:00 -2°C° 0 mm 2 mps 756 mmHg 88%
    02:00 -2°C° 0 mm 2 mps 756 mmHg 89%
    03:00 -3°C° 0 mm 2 mps 756 mmHg 90%
    04:00 -3°C° 0 mm 2 mps 756 mmHg 90%
    05:00 -3°C° 0 mm 2 mps 757 mmHg 90%
    06:00 -3°C° 0 mm 2 mps 757 mmHg 89%
    07:00 -3°C° 0 mm 2 mps 758 mmHg 88%
    08:00 -3°C° 0 mm 2 mps 758 mmHg 83%
    09:00 -2°C° 0 mm 2 mps 759 mmHg 78%
    10:00 -1°C° 0 mm 2 mps 759 mmHg 73%
    11:00 +1°C° 0 mm 2 mps 759 mmHg 71%
    12:00 +1°C° 0 mm 2 mps 759 mmHg 68%
    13:00 +2°C° 0 mm 2 mps 759 mmHg 66%
    14:00 +2°C° 0 mm 2 mps 759 mmHg 70%
    15:00 +1°C° 0 mm 2 mps 759 mmHg 73%
    16:00 +1°C° 0 mm 2 mps 759 mmHg 77%
    17:00 -1°C° 0 mm 2 mps 759 mmHg 79%
    18:00 -2°C° 0 mm 2 mps 759 mmHg 81%
    19:00 -3°C° 0 mm 2 mps 760 mmHg 83%
    20:00 -3°C° 0 mm 2 mps 760 mmHg 81%
    21:00 -1°C° 0 mm 1 mps 760 mmHg 80%
    22:00 -1°C° 0 mm 1 mps 760 mmHg 78%
    23:00 -1°C° 0 mm 1 mps 760 mmHg 78%

    22 January, Tuesday

    Time Temperature Precipitation Wind Pressure Humidity
    00:00 -1°C° 0 mm 1 mps 759 mmHg 78%
    01:00 -2°C° 0 mm 1 mps 759 mmHg 77%
    02:00 -2°C° 0 mm 1 mps 759 mmHg 78%
    03:00 -2°C° 0 mm 1 mps 758 mmHg 80%
    04:00 -2°C° 0 mm 1 mps 758 mmHg 81%
    05:00 -4°C° 0 mm 2 mps 758 mmHg 83%
    06:00 -4°C° 0 mm 2 mps 757 mmHg 84%
    07:00 -4°C° 0 mm 2 mps 757 mmHg 86%
    08:00 -3°C° 0 mm 2 mps 757 mmHg 81%
    09:00 -3°C° 0 mm 2 mps 756 mmHg 76%
    10:00 -2°C° 0 mm 2 mps 756 mmHg 70%
    11:00 -1°C° 0 mm 2 mps 755 mmHg 69%
    12:00 0°C° 0 mm 3 mps 754 mmHg 68%
    13:00 +1°C° 0 mm 3 mps 753 mmHg 66%
    14:00 0°C° 0 mm 3 mps 752 mmHg 71%
    15:00 0°C° 0 mm 3 mps 751 mmHg 75%
    16:00 0°C° 0 mm 3 mps 751 mmHg 80%
    17:00 -1°C° 0 mm 3 mps 750 mmHg 82%
    18:00 -1°C° 0 mm 3 mps 749 mmHg 84%
    19:00 -2°C° 0 mm 4 mps 748 mmHg 87%
    20:00 -2°C° 0 mm 4 mps 748 mmHg 87%
    21:00 -2°C° 0 mm 4 mps 747 mmHg 87%
    22:00 -1°C° 0 mm 3 mps 746 mmHg 88%
    23:00 -1°C° 0 mm 3 mps 745 mmHg 89%

    23 January, Wednesday

    Time Temperature Precipitation Wind Pressure Humidity
    00:00 -1°C° 0 mm 3 mps 744 mmHg 89%
    01:00 -1°C° 0 mm 3 mps 743 mmHg 90%
    02:00 -1°C° 0 mm 3 mps 743 mmHg 89%
    03:00 -1°C° 0 mm 3 mps 742 mmHg 89%
    04:00 -1°C° 0 mm 3 mps 741 mmHg 88%
    05:00 -1°C° 0 mm 3 mps 740 mmHg 90%
    06:00 -1°C° 0 mm 3 mps 740 mmHg 91%
    07:00 -1°C° 0 mm 3 mps 739 mmHg 93%
    08:00 0°C° 0 mm 3 mps 739 mmHg 90%
    09:00 +1°C° 0 mm 3 mps 738 mmHg 88%
    10:00 0°C° 0 mm 4 mps 738 mmHg 86%
    11:00 +1°C° 0 mm 4 mps 737 mmHg 83%
    12:00 +2°C° 0 mm 5 mps 736 mmHg 80%
    13:00 +3°C° 0 mm 5 mps 735 mmHg 78%
    14:00 +3°C° 0.3 mm 4 mps 734 mmHg 81%
    15:00 +3°C° 0.3 mm 3 mps 733 mmHg 85%
    16:00 +3°C° 0.3 mm 2 mps 733 mmHg 88%
    17:00 +2°C° 0.1 mm 3 mps 732 mmHg 90%
    18:00 +1°C° 0.1 mm 3 mps 732 mmHg 91%
    19:00 0°C° 0.1 mm 4 mps 732 mmHg 93%
    20:00 0°C° 0 mm 4 mps 731 mmHg 92%
    21:00 +1°C° 0 mm 5 mps 731 mmHg 92%
    22:00 +1°C° 0 mm 5 mps 730 mmHg 92%
    23:00 +1°C° 1 mm 4 mps 730 mmHg 92%
    Show more